Location: Oshawa
(43.9000°N, 78.8670°W)
Time: 12:17:26
(UTC-04:00)

S-56A Canister/Altair - All Passes

Search period start: 05 September 2015 00:00
Search period end: 15 September 2015 00:00
Orbit: 636 x 2499 km, 38.9° (Epoch: 04 September)

Date Brightness Start Highest point End Pass type
(mag) Time Alt. Az. Time Alt. Az. Time Alt. Az.
05 Sep - 00:18:41 10° W 00:31:58 38° SW 00:43:52 10° SSE visible
05 Sep - 02:30:31 10° WSW 02:35:56 12° SW 02:39:47 10° SW visible
05 Sep - 15:32:31 10° SSE 15:37:54 17° SE 15:45:03 10° E daylight
05 Sep - 17:31:34 10° SW 17:41:13 47° SSE 17:54:27 10° E daylight
05 Sep - 19:34:42 10° WSW 19:46:38 70° S 20:01:40 10° E daylight
05 Sep - 21:39:30 10° W 21:53:07 67° SSW 22:07:51 10° ESE visible
05 Sep - 23:45:32 10° W 23:59:00 42° SW 00:11:34 10° SSE visible
06 Sep - 01:55:33 10° W 02:03:17 15° SW 02:09:26 10° SSW visible
06 Sep - 15:01:53 10° SSE 15:05:35 13° SE 15:10:35 10° E daylight
06 Sep - 16:59:37 10° SSW 17:08:33 43° SSE 17:21:01 10° E daylight
06 Sep - 19:02:19 10° WSW 19:13:36 69° S 19:28:24 10° E daylight
06 Sep - 21:06:49 10° W 21:19:57 68° S 21:34:55 10° ESE visible
06 Sep - 23:12:30 10° W 23:25:59 45° SSW 23:39:09 10° SSE visible
07 Sep - 01:21:20 10° W 01:30:34 18° SW 01:38:20 10° SSW visible
07 Sep - 16:27:45 10° SSW 16:35:58 38° SE 16:47:33 10° E daylight
07 Sep - 18:30:01 10° WSW 18:40:38 66° SSE 18:55:06 10° E daylight
07 Sep - 20:34:13 10° W 20:46:48 69° S 21:01:51 10° ESE visible
07 Sep - 22:39:34 10° W 22:52:56 48° SSW 23:06:36 10° SE visible
08 Sep - 00:47:31 10° W 00:57:48 21° SW 01:06:50 10° S visible
08 Sep - 15:56:00 10° SSW 16:03:29 33° SE 16:14:02 10° E daylight
08 Sep - 17:57:48 10° WSW 18:07:45 63° SSE 18:21:45 10° E daylight
08 Sep - 20:01:43 10° W 20:13:42 70° S 20:28:43 10° ESE visible
08 Sep - 22:06:45 10° W 22:19:52 51° SSW 22:33:56 10° SE visible
09 Sep - 00:13:59 10° W 00:24:58 25° SW 00:35:03 10° S visible
09 Sep - 15:24:22 10° SSW 15:31:05 29° SE 15:40:29 10° E daylight
09 Sep - 17:25:40 10° WSW 17:34:58 60° SSE 17:48:22 10° E daylight
09 Sep - 19:29:16 10° W 19:40:38 71° S 19:55:30 10° ESE daylight
09 Sep - 21:34:02 10° W 21:46:47 54° SSW 22:01:09 10° SE visible
09 Sep - 23:40:39 10° W 23:52:06 28° SW 00:03:03 10° S visible
10 Sep - 14:52:53 10° S 14:58:47 24° SE 15:06:54 10° E daylight
10 Sep - 16:53:36 10° SW 17:02:16 56° SSE 17:14:58 10° E daylight
10 Sep - 18:56:56 10° W 19:07:38 71° S 19:22:13 10° ESE daylight
10 Sep - 21:01:24 10° W 21:13:42 57° SSW 21:28:15 10° SE visible
10 Sep - 23:07:30 10° W 23:19:11 30° SW 23:30:52 10° SSE visible
11 Sep - 14:21:35 10° S 14:26:33 19° SE 14:33:12 10° E daylight
11 Sep - 16:21:39 10° SW 16:29:41 52° SSE 16:41:36 10° E daylight
11 Sep - 18:24:39 10° W 18:34:43 70° S 18:48:54 10° E daylight
11 Sep - 20:28:51 10° W 20:40:39 59° SSW 20:55:15 10° SE visible
11 Sep - 22:34:30 10° W 22:46:14 33° SW 22:58:31 10° SSE visible
12 Sep - 13:50:36 10° SSE 13:54:21 15° SE 13:59:20 10° E daylight
12 Sep - 15:49:44 10° SW 15:57:10 47° SSE 16:08:12 10° E daylight
12 Sep - 17:52:26 10° WSW 18:01:52 69° S 18:15:33 10° E daylight
12 Sep - 19:56:24 10° W 20:07:39 61° SSW 20:22:10 10° ESE visible
12 Sep - 22:01:38 10° W 22:13:17 36° SW 22:26:01 10° SSE visible
13 Sep - 00:12:41 10° WSW 00:18:01 12° SW 00:22:02 10° SSW visible
13 Sep - 13:20:18 10° SE 13:22:13 11° SE 13:24:50 10° ESE daylight
13 Sep - 15:17:55 10° SW 15:24:45 42° SSE 15:34:51 10° E daylight
13 Sep - 17:20:18 10° WSW 17:29:06 67° S 17:42:11 10° E daylight
13 Sep - 19:24:01 10° W 19:34:41 63° SSW 19:49:00 10° ESE daylight
13 Sep - 21:28:54 10° W 21:40:19 39° SSW 21:53:24 10° SSE visible
13 Sep - 23:38:08 10° WSW 23:45:14 14° SW 23:51:21 10° SSW visible
14 Sep - 14:46:10 10° SSW 14:52:25 36° SSE 15:01:31 10° E daylight
14 Sep - 16:48:13 10° WSW 16:56:26 65° S 17:08:49 10° E daylight
14 Sep - 18:51:44 10° W 19:01:46 64° S 19:15:46 10° ESE daylight
14 Sep - 20:56:16 10° W 21:07:22 41° SSW 21:20:39 10° SSE visible
14 Sep - 23:04:17 10° W 23:12:24 17° SW 23:19:58 10° SSW visible
